| DS18B20 | SHTC3 | ||||||
|---|---|---|---|---|---|---|---|
| ID | Date d/m/Y & Time | data1 สูง | data2 ต่ำ | data3 นอก | temp pcb | hum pcb | Time |
| 1194 | 10/03/2026 14:59:07 | 31.5  | 31.5  | 31.2  | 31.4  | 66.5  | 14:59 |
| 1193 | 10/03/2026 14:54:26 | 31.5  | 31.5  | 31.4  | 31.5  | 66.7  | 14:54 |
| 1192 | 10/03/2026 14:49:44 | 31.5  | 31.5  | 31.4  | 31.5  | 67.0  | 14:49 |
| 1191 | 10/03/2026 14:45:03 | 31.6  | 31.5  | 31.1  | 31.5  | 67.0  | 14:45 |
| 1190 | 10/03/2026 14:40:21 | 31.6  | 31.6  | 31.1  | 31.4  | 67.3  | 14:40 |
| 1189 | 10/03/2026 14:35:40 | 31.6  | 31.6  | 31.2  | 31.5  | 67.5  | 14:35 |
| 1188 | 10/03/2026 14:30:59 | 31.6  | 31.6  | 31.4  | 31.7  | 67.5  | 14:30 |
| 1187 | 10/03/2026 14:26:18 | 31.6  | 31.6  | 31.5  | 31.6  | 67.3  | 14:26 |
| 1186 | 10/03/2026 14:21:36 | 31.6  | 31.6  | 31.2  | 31.6  | 65.8  | 14:21 |
| 1185 | 10/03/2026 14:16:55 | 31.6  | 31.6  | 31.7  | 31.5  | 66.1  | 14:16 |
| 1184 | 10/03/2026 14:12:14 | 31.5  | 31.5  | 31.5  | 31.7  | 66.5  | 14:12 |
| 1183 | 10/03/2026 14:07:31 | 31.5  | 31.5  | 31.6  | 31.5  | 66.2  | 14:07 |
| 1182 | 10/03/2026 14:02:48 | 31.5  | 31.4  | 31.5  | 31.5  | 64.8  | 14:02 |
| 1181 | 10/03/2026 13:58:07 | 31.4  | 31.4  | 31.8  | 31.2  | 63.8  | 13:58 |
| 1180 | 10/03/2026 13:53:25 | 31.3  | 31.3  | 31.8  | 31.4  | 62.5  | 13:53 |
| 1179 | 10/03/2026 13:48:43 | 31.3  | 31.3  | 31.7  | 31.3  | 62.3  | 13:48 |
| 1178 | 10/03/2026 13:44:01 | 31.2  | 31.2  | 31.7  | 31.2  | 61.9  | 13:44 |
| 1177 | 10/03/2026 13:39:20 | 31.4  | 31.3  | 31.4  | 31.1  | 61.6  | 13:39 |
| 1176 | 10/03/2026 13:34:38 | 31.3  | 31.3  | 31.6  | 31.3  | 62.8  | 13:34 |
| 1175 | 10/03/2026 13:29:57 | 31.3  | 31.3  | 31.7  | 31.1  | 66.4  | 13:29 |
| 1174 | 10/03/2026 13:25:15 | 31.3  | 31.2  | 31.6  | 31.4  | 69.0  | 13:25 |
| 1173 | 10/03/2026 13:20:34 | 31.2  | 31.2  | 31.3  | 31.2  | 68.2  | 13:20 |
| 1172 | 10/03/2026 13:15:52 | 31.1  | 31.1  | 31.5  | 31.1  | 67.1  | 13:15 |
| 1171 | 10/03/2026 13:11:10 | 31.1  | 31.1  | 31.4  | 31.1  | 68.0  | 13:11 |